User: anonymous   Login
Location: Caltech
(34.1382°N, 118.1253°W)
Time: 19:54:41
(UTC-07:00)
Language:

Cosmos 2237 Rocket - Orbit

View from above orbital plane
View from above orbital plane
View from above satellite
View from above satellite

Ground track
Ground track

The orbit data is extracted from the following two-line orbital elements,

1 22566U 93016B   16205.61427360 -.00000223  00000-0 -90782-4 0  9992
2 22566  71.0078  36.6103 0012737 273.5245  86.4421 14.14931908204790
Epoch (UTC): 23 July 2016 14:44:33
Eccentricity: 0.0012737
inclination: 71.0078°
perigee height: 833 km
apogee height: 852 km
right ascension of ascending node: 36.6103°
argument of perigee: 273.5245°
revolutions per day: 14.14931908
mean anomaly at epoch: 86.4421°
orbit number at epoch: 20479

The dashed part of the orbit path shows where the satellite is in the earth's shadow,  

DLR